CZ-6A DEB, 54338

Orbit data source: Space-Track

CZ-6A DEB, 54338 is space debris in SSO originally from a launch on Fri, 11 Nov 2022 UTC launched from the Taiyaun Space Center, China (TSC). Debris objects in space refer to the collection of defunct objects orbiting the Earth. Examples of debris include non-operational satellites, rocket bodies, and fragments generated from explosions, collisions, or faulty payload assembly.

Loading next visibility...
Identifier
54338, 2022-151CH
Orbit
SSO
Country
Flag of CNCN / PRC
Related business
Manufacturer
SAST
Mission
Spacecraft
Bus & Motor
Unknown
Mass
Unknown
Launch date (UTC)
2022-11-11 (3 years ago)
Launch vehicle
Unknown
Launch site
Taiyaun Space Center, China (TSC)
Object type
Payload
Rocket body
Debris
Shape & HBR
Unknown shape, 0.2 m
Radar Cross Section
Small (<0.1 m²)

Expand to show TLE details & history
Last TLE update: 16 hours ago

TLE from 16 hours ago
0 CZ-6A DEB
1 54338U 22151CH  26129.94428625  .00000828  00000-0  45121-3 0  9998
2 54338  98.8368 137.0120 0041154  75.6768 284.8969 14.14463631179382
Epoch: 2026-05-09T22:39Z
TLE epoch observation values (Epoch: 2026-05-09T22:39:46.332Z)
Latitude
-0.00001°
Longitude
-70.6855°
Altitude
839.512 km
Speed
7.437 km/s
True Right ascension
09h 08m 02s
True Declination
0° 00' 00"
Sunlit
Object was in daylight at epoch
Visualization orbit readout
Latitude
Unknown
Longitude
Unknown
Altitude
Unknown
Speed
Unknown
Apparent Right ascension
Unknown
Apparent Declination
Unknown
Sunlit
N/A
Visualization observer readout
Local Sidereal Time
22:57:55
Azimuth
Unknown
Elevation
Unknown
Doppler factor
Unknown
Orbital elements
Apogee altitude
871.02 km
Perigee altitude
811.599 km
Semi-major axis
7,219.446 km
Eccentricity
0.00412
Inclination
98.8368°
RAAN
137.012°
Arg. of periapsis
75.6768°
True anomaly
284.44056°
Mean anomaly
284.8969°
Eccentric anomaly
284.66879°
Mean motion
3.53824 °/min
Orbital period
101.75 mins
BSTAR
0.00045121
Loading maneuver chart data...
Computing Atmospheric mass density...

Documentation

Showing up to 5 results
|